Temperature
6 6 6 7 7 7 7 7 7 8 7 7 7 7 7 7 7 7 7 7 7 7 7 7 7 7 7 7 7 7 7 7 7 7 6 6 6 6 6 6 6 6 6
5 6 6 6 6 6 6 7 7 7 7 7 7 7 7 7 7 7 7 7 7 7 7 6 7 6 6 7 7 7 7 7 6 6 6 6 6 6 5 5 6 6 6
4 5 5 5 6 6 6 6 6 6 6 6 6 6 6 6 6 6 6 6 6 6 6 6 6 6 6 6 6 6 6 6 6 6 6 5 5 5 5 5 5 5 5
4 4 4 5 5 5 5 5 5 5 5 5 6 6 6 6 6 6 6 6 6 6 6 6 6 6 6 6 5 5 5 5 5 5 5 5 5 4 4 4 4 5 5
3 3 4 4 4 4 5 5 5 5 5 5 5 5 5 5 5 5 5 6 5 5 5 5 5 5 5 5 5 5 5 5 5 4 4 4 4 4 4 4 4 4 4
2 2 3 3 3 4 4 4 4 4 4 4 4 4 5 5 5 5 5 5 5 5 5 5 5 5 4 4 4 4 4 4 4 4 4 3 3 3 3 3 3 3 3
1 1 2 2 2 3 3 3 4 4 4 4 4 4 4 4 4 4 4 4 4 4 4 4 4 4 4 4 4 4 4 3 3 3 3 3 3 3 3 2 2 2 2
0 1 1 1 2 2 2 2 3 3 3 3 3 3 3 3 4 4 4 4 4 4 4 4 4 4 4 3 3 3 3 3 3 3 2 2 2 2 2 2 2 2 2
-0 0 0 1 1 1 2 2 2 2 2 2 2 2 3 3 3 3 3 3 3 3 3 3 3 3 3 3 3 3 3 2 2 2 2 2 1 1 1 1 1 1 1
-1 -1 -0 0 1 1 1 1 1 2 2 2 2 2 2 2 2 2 2 2 2 2 2 2 2 2 2 2 2 2 2 2 2 1 1 1 1 1 1 1 1 0 0
-1 -1 -1 -0 0 0 1 1 1 1 1 1 1 1 1 1 1 1 1 1 2 2 2 2 1 1 1 1 1 1 1 1 1 1 1 1 1 1 0 0 0 -0 -0
-2 -2 -1 -1 -1 -0 0 0 0 0 0 0 0 0 0 1 1 1 1 1 1 1 1 1 1 1 1 1 1 1 0 0 0 0 0 0 0 -0 -0 -0 -0 -0 -1
-2 -2 -2 -2 -1 -1 -1 -0 -0 -0 -0 -0 -0 -0 -0 -0 -0 -0 -0 0 0 0 0 0 0 0 0 0 0 -0 -0 -0 -0 -0 -0 -1 -1 -1 -1 -1 -1 -1 -1
-3 -2 -2 -2 -2 -2 -2 -1 -1 -1 -1 -1 -1 -1 -1 -1 -1 -1 -1 -1 -1 -0 -0 -0 -0 -0 -1 -0 -1 -1 -1 -1 -1 -1 -1 -1 -1 -1 -1 -1 -1 -1 -1
-3 -3 -3 -3 -2 -2 -2 -2 -2 -2 -1 -1 -1 -1 -1 -1 -1 -1 -1 -1 -1 -1 -1 -1 -1 -1 -1 -1 -1 -1 -1 -1 -1 -1 -2 -2 -2 -2 -2 -2 -2 -2 -2
-4 -4 -3 -3 -3 -3 -3 -3 -3 -3 -2 -2 -2 -2 -2 -2 -2 -2 -2 -2 -2 -2 -2 -2 -2 -2 -2 -2 -2 -2 -2 -2 -2 -2 -2 -2 -2 -3 -3 -3 -3 -3 -3
-4 -4 -4 -4 -3 -3 -3 -3 -3 -3 -3 -3 -3 -3 -3 -3 -3 -3 -2 -2 -2 -2 -2 -2 -2 -2 -2 -2 -2 -2 -2 -2 -2 -3 -3 -3 -3 -3 -3 -3 -4 -4 -4
-5 -5 -4 -4 -4 -4 -4 -4 -4 -4 -4 -4 -4 -4 -3 -3 -3 -3 -3 -3 -3 -3 -3 -3 -3 -3 -3 -3 -3 -3 -3 -3 -3 -3 -3 -4 -4 -4 -4 -4 -4 -4 -4
-5 -5 -5 -5 -5 -4 -4 -4 -4 -4 -4 -4 -4 -4 -4 -4 -4 -4 -4 -4 -3 -3 -3 -3 -3 -3 -3 -3 -3 -4 -4 -4 -4 -4 -4 -4 -4 -4 -5 -5 -5 -5 -5
-6 -6 -6 -5 -5 -5 -5 -5 -5 -5 -5 -5 -5 -5 -5 -5 -4 -4 -4 -4 -4 -4 -4 -4 -4 -4 -4 -4 -4 -4 -4 -4 -4 -4 -4 -5 -5 -5 -5 -5 -5 -5 -5
-7 -6 -6 -6 -6 -6 -5 -5 -5 -5 -5 -5 -5 -5 -5 -5 -5 -5 -5 -5 -4 -4 -4 -4 -4 -4 -5 -5 -5 -5 -5 -5 -5 -5 -5 -5 -5 -5 -5 -6 -6 -6 -6
-7 -7 -7 -6 -6 -6 -6 -6 -6 -6 -6 -6 -6 -6 -6 -5 -5 -5 -5 -5 -5 -5 -5 -5 -5 -5 -5 -5 -5 -5 -5 -5 -5 -5 -5 -5 -6 -6 -6 -6 -6 -6 -6
-7 -7 -7 -7 -7 -7 -7 -6 -6 -6 -6 -6 -6 -6 -6 -6 -6 -6 -6 -6 -5 -5 -6 -6 -6 -6 -6 -6 -6 -6 -6 -6 -6 -6 -6 -6 -6 -6 -6 -7 -7 -7 -7
-8 -8 -8 -8 -7 -7 -7 -7 -7 -7 -7 -7 -7 -7 -6 -6 -6 -6 -6 -6 -6 -6 -6 -6 -6 -6 -6 -6 -6 -6 -6 -6 -7 -7 -7 -7 -7 -7 -7 -7 -7 -7 -7
-9 -8 -8 -8 -8 -8 -8 -8 -7 -7 -7 -7 -7 -7 -7 -7 -7 -6 -6 -6 -6 -6 -6 -7 -7 -7 -7 -7 -7 -7 -7 -7 -7 -7 -7 -7 -7 -7 -7 -7 -7 -7 -8
-9 -9 -9 -9 -8 -8 -8 -8 -8 -8 -8 -8 -8 -7 -7 -7 -7 -7 -7 -7 -7 -7 -7 -7 -7 -7 -7 -7 -7 -7 -7 -7 -7 -7 -7 -7 -7 -7 -8 -8 -8 -8 -8
Wind_Speed
1 1 2 2 2 3 4 4 5 4 5 5 5 5 5 5 5 5 5 5 5 4 4 4 3 3 2 2 2 2 2 2 2 2 1 1 0 0 0 1 1 1 2
1 1 2 2 2 3 3 3 4 5 5 5 5 6 5 5 5 6 6 5 6 6 5 5 4 3 3 2 2 2 2 2 3 2 1 1 1 1 0 1 1 2 3
0 1 1 2 3 3 3 3 4 4 4 4 5 6 6 5 5 5 6 5 5 6 6 6 5 5 3 2 2 2 2 1 2 3 2 1 1 0 0 1 2 2 3
1 1 1 2 3 3 3 3 4 4 5 5 5 5 5 5 5 5 5 5 4 4 4 4 5 5 5 5 3 3 3 2 2 2 2 1 1 1 0 1 2 2 2
1 0 1 2 2 2 3 3 3 4 4 4 5 4 4 4 4 5 5 5 5 4 3 3 3 5 5 4 4 4 4 3 2 2 2 1 1 1 1 1 2 2 2
1 0 0 0 2 2 3 3 4 3 3 4 5 5 4 4 6 7 6 5 5 5 4 3 3 3 4 4 4 4 5 4 4 3 2 3 3 2 2 1 1 1 2
1 1 1 1 1 2 3 4 4 4 3 4 4 5 5 5 7 8 7 5 5 4 4 4 2 2 3 4 4 4 3 3 4 4 4 4 3 3 3 2 2 2 3
2 1 1 1 1 2 3 4 3 4 4 4 4 4 4 5 7 7 7 5 4 3 4 4 4 3 3 5 4 3 2 1 2 2 3 3 2 3 3 3 2 2 2
2 2 1 0 2 3 3 3 3 4 3 3 4 4 5 4 6 7 6 4 4 3 3 3 4 4 5 6 5 4 2 1 2 3 2 2 1 1 2 1 0 1 3
2 1 1 0 2 2 3 3 3 3 3 3 3 3 4 4 5 6 6 4 4 3 3 3 4 5 6 6 5 5 4 2 1 1 1 1 1 1 1 1 2 1 2
2 1 1 1 1 2 2 2 3 3 4 4 3 3 3 3 5 5 5 4 4 4 3 3 3 5 5 5 4 4 5 4 3 2 1 0 1 1 1 1 1 2 2
1 1 1 1 1 2 3 3 3 4 4 4 3 2 2 2 2 4 5 4 4 4 4 3 3 5 5 4 3 4 4 3 2 1 1 1 1 1 1 1 2 3 4
2 2 2 2 2 2 2 3 3 3 3 3 3 2 1 1 2 3 4 4 4 3 3 5 5 5 4 3 4 4 3 2 2 2 2 2 2 2 1 1 2 2 3
1 1 1 2 2 2 1 2 2 3 3 3 3 3 2 1 1 1 2 3 3 3 3 4 4 4 2 3 2 2 2 2 3 3 2 2 1 1 1 1 2 2 2
1 1 1 1 1 1 1 1 1 1 2 3 3 3 4 3 3 3 3 3 3 4 3 2 2 2 2 1 1 1 1 2 2 2 2 1 1 1 2 1 2 2 2
1 1 1 1 1 2 2 2 4 2 2 2 1 2 2 3 4 4 4 4 4 6 3 2 2 2 3 3 2 2 2 2 2 2 2 2 2 2 2 2 2 3 4
1 1 1 1 1 1 2 2 2 3 3 3 2 2 2 3 3 4 4 4 4 4 2 2 3 3 2 2 2 2 2 2 2 2 2 2 2 3 3 3 3 3 4
2 2 1 0 0 1 1 2 2 2 1 1 1 2 2 3 3 3 4 3 2 1 1 2 2 2 2 3 3 3 2 2 2 2 3 3 3 3 3 4 4 4 5
2 1 1 1 0 0 1 1 2 2 2 1 1 1 2 2 3 2 2 1 2 2 2 2 2 2 2 3 3 3 3 3 3 3 3 4 4 4 4 4 4 6 5
2 3 2 1 1 0 1 1 2 2 2 1 1 1 1 1 1 1 1 1 1 2 2 2 2 2 2 3 3 3 3 3 3 4 4 4 4 4 5 5 5 5 5
2 3 3 2 1 0 0 1 2 2 2 2 2 2 2 1 2 2 2 2 2 2 2 2 2 2 2 3 3 3 4 4 4 3 4 4 4 4 4 5 5 5 5
2 2 2 2 1 1 0 0 1 1 2 2 1 2 2 1 1 2 2 2 2 2 2 2 3 3 3 4 4 4 4 4 4 4 4 4 4 4 4 4 4 4 5
3 3 3 2 2 1 1 0 0 1 1 2 2 2 2 2 2 2 2 2 2 2 3 3 3 3 4 5 5 5 5 5 5 5 4 4 5 5 5 5 6 5 6
3 3 2 2 2 1 1 1 1 1 1 1 1 2 2 2 2 2 2 2 2 3 3 4 4 5 5 5 6 6 7 7 7 7 7 6 5 5 5 5 6 6 6
3 3 2 2 2 2 1 1 1 1 1 2 2 2 2 2 2 3 3 3 3 3 4 5 5 5 6 7 7 7 7 8 8 8 7 6 6 5 5 5 5 5 5
3 3 3 2 2 2 2 2 2 2 2 2 2 2 3 3 3 3 3 3 3 3 4 5 6 6 7 7 8 8 8 8 9 9 8 6 5 5 5 5 5 5 6
Wind_Direction
157 175 171 180 183 179 182 190 186 178 174 179 184 187 191 188 181 179 184 182 187 191 187 184 193 178 174 181 165 155 157 156 196 242 243 238 160 176 359 351 328 329 324
193 169 176 173 167 171 185 190 180 179 179 180 181 185 191 192 187 186 191 190 191 194 193 184 190 175 177 178 165 162 171 163 172 206 237 237 252 229 304 352 338 311 303
89 161 176 180 180 190 197 188 179 177 178 181 181 184 188 188 188 191 187 186 192 194 191 188 186 170 179 176 165 165 166 152 152 174 207 215 255 277 346 333 338 321 307
68 131 198 215 204 199 192 181 180 178 180 183 181 182 185 181 178 177 174 172 175 178 179 181 180 178 180 175 173 174 163 145 137 155 175 189 226 298 37 289 305 300 308
69 119 240 231 201 175 168 171 171 170 175 173 166 165 165 168 170 163 163 162 161 161 162 166 168 168 175 179 179 174 164 159 158 164 188 202 214 221 245 256 270 299 308
42 329 305 158 154 155 157 154 155 160 164 162 164 164 164 180 173 170 165 158 159 163 164 162 156 150 159 162 157 159 163 169 177 190 210 210 227 228 237 241 255 294 296
5 7 33 107 149 150 145 138 144 148 145 148 156 157 164 173 172 170 168 159 157 161 161 157 155 145 146 134 124 117 127 159 181 189 195 219 225 221 212 228 244 256 265
360 7 29 126 140 140 141 144 144 141 145 149 150 150 154 167 167 164 156 147 143 151 156 155 156 157 154 143 132 125 124 117 149 153 182 208 217 207 200 211 227 256 283
358 355 342 166 148 141 147 151 147 141 142 145 144 145 145 148 153 156 154 145 143 152 155 156 157 158 161 156 148 147 141 138 118 140 160 156 163 178 170 141 170 304 295
331 325 338 118 144 150 151 149 140 140 141 137 135 141 147 152 154 153 157 154 156 157 147 153 167 169 171 171 170 164 172 192 157 100 85 52 55 77 153 180 199 223 269
325 350 27 64 121 134 127 129 131 129 125 125 125 121 132 148 155 158 164 166 168 163 164 167 170 167 170 175 178 178 187 180 157 151 143 76 38 37 6 313 220 214 240
11 41 49 57 84 103 112 109 119 127 128 129 124 114 108 131 146 160 168 172 168 162 170 175 171 168 175 177 177 170 170 161 145 147 168 235 264 279 289 287 263 248 249
40 53 62 54 60 91 115 122 121 128 139 147 147 145 132 115 130 141 151 157 161 161 161 165 165 166 169 175 170 170 168 164 157 174 209 235 244 255 281 310 312 299 293
58 62 76 82 70 73 98 129 140 148 148 154 159 161 161 162 151 147 143 143 142 143 144 150 154 156 153 152 156 168 174 183 185 198 212 228 240 247 268 284 289 298 300
51 67 72 83 108 91 71 74 124 162 174 168 174 172 171 183 191 175 166 166 166 160 144 130 136 151 167 165 161 168 178 184 197 201 204 221 236 250 265 267 272 282 273
38 40 63 84 98 109 100 64 47 72 83 95 126 164 174 170 166 172 171 166 163 165 156 162 174 184 195 195 194 204 208 206 207 210 218 225 233 242 258 265 259 256 265
26 8 36 73 122 136 138 133 104 60 69 86 112 139 158 160 161 163 157 156 163 162 166 176 185 193 201 200 202 213 223 223 213 218 226 230 237 243 247 252 253 257 263
9 1 358 351 173 175 170 164 161 158 137 84 108 147 158 162 160 155 153 149 167 185 180 185 198 205 208 209 213 220 221 217 218 226 230 233 233 240 247 250 250 252 261
1 1 356 348 2 148 145 141 146 151 153 147 122 144 154 155 148 147 148 174 189 206 210 208 210 213 216 216 220 223 223 224 226 229 234 236 234 236 246 250 253 261 262
356 357 355 360 21 61 135 149 156 157 157 164 186 200 163 142 156 177 203 199 208 228 223 220 222 219 216 217 220 223 228 234 232 233 235 238 238 237 242 247 250 254 257
347 349 352 354 354 343 185 179 183 181 183 194 217 224 208 195 200 202 208 215 217 228 231 229 230 229 227 227 227 226 228 235 236 236 238 241 242 245 246 246 249 251 259
346 349 350 346 343 338 336 220 201 200 198 201 219 230 238 244 229 218 226 234 229 221 222 223 236 236 226 225 224 226 229 233 237 238 242 245 248 250 250 250 252 254 257
351 350 348 346 350 346 355 348 238 217 213 216 229 243 247 241 241 240 241 242 235 234 239 232 230 236 242 240 234 225 225 230 232 231 239 245 246 247 245 246 249 255 258
349 350 347 341 344 344 325 291 277 262 246 247 250 252 253 248 248 251 249 246 244 248 246 241 236 236 240 244 245 244 241 243 243 238 234 236 242 244 243 245 248 250 254
346 342 338 332 330 326 316 289 270 272 277 278 274 271 269 264 259 258 255 250 250 248 251 252 247 243 241 243 248 251 251 252 250 245 239 232 235 239 242 246 249 255 255
329 327 323 321 316 311 304 295 288 281 276 280 280 277 272 268 265 264 259 251 249 252 257 258 252 251 251 251 251 253 255 255 253 252 246 235 231 240 243 247 249 252 256
Height
1482 1484 1486 1488 1491 1493 1495 1497 1499 1501 1503 1505 1507 1510 1511 1514 1516 1517 1519 1521 1523 1525 1527 1528 1530 1532 1534 1535 1536 1537 1538 1539 1539 1539 1540 1541 1542 1542 1542 1543 1543 1542 1542
1479 1481 1483 1485 1487 1489 1491 1493 1495 1497 1500 1502 1504 1506 1508 1510 1512 1514 1516 1518 1519 1521 1523 1525 1527 1528 1530 1531 1532 1533 1534 1535 1535 1535 1536 1537 1538 1538 1539 1539 1539 1539 1539
1476 1477 1479 1481 1483 1485 1487 1489 1491 1494 1496 1498 1500 1502 1504 1506 1508 1511 1512 1514 1516 1518 1520 1521 1523 1524 1526 1527 1528 1529 1530 1531 1531 1532 1532 1533 1534 1535 1535 1535 1535 1535 1535
1473 1474 1476 1478 1480 1482 1484 1486 1488 1490 1492 1494 1496 1499 1501 1503 1505 1507 1509 1511 1513 1514 1516 1518 1519 1520 1522 1523 1524 1525 1526 1527 1528 1528 1529 1529 1530 1531 1531 1531 1531 1531 1531
1470 1472 1473 1475 1477 1479 1480 1482 1484 1487 1489 1491 1493 1495 1497 1499 1501 1503 1505 1507 1509 1511 1512 1514 1515 1517 1518 1520 1521 1522 1523 1523 1524 1525 1525 1525 1526 1527 1527 1527 1527 1527 1526
1468 1469 1470 1472 1473 1475 1477 1479 1481 1483 1485 1488 1490 1491 1493 1495 1498 1500 1502 1504 1505 1507 1508 1510 1512 1513 1515 1516 1517 1518 1520 1520 1521 1521 1521 1522 1522 1523 1524 1524 1524 1523 1522
1466 1466 1467 1469 1470 1472 1474 1476 1478 1480 1482 1484 1486 1488 1490 1492 1494 1496 1499 1500 1502 1504 1505 1507 1508 1510 1512 1513 1514 1515 1516 1517 1518 1519 1519 1519 1520 1520 1521 1521 1520 1519 1519
1464 1464 1465 1466 1468 1469 1471 1472 1475 1477 1479 1481 1482 1484 1486 1488 1491 1493 1495 1496 1498 1500 1502 1504 1505 1507 1509 1510 1511 1512 1513 1513 1514 1515 1516 1516 1517 1517 1517 1517 1517 1516 1514
1461 1462 1463 1464 1465 1466 1468 1470 1472 1474 1476 1478 1479 1481 1483 1485 1487 1489 1491 1493 1495 1497 1499 1501 1502 1504 1505 1507 1508 1508 1509 1510 1511 1512 1513 1513 1514 1514 1514 1514 1513 1512 1509
1459 1460 1460 1461 1463 1464 1465 1467 1469 1471 1473 1475 1476 1479 1480 1482 1484 1486 1488 1490 1491 1493 1495 1497 1499 1501 1502 1503 1505 1505 1506 1507 1508 1509 1510 1510 1510 1510 1510 1510 1509 1508 1506
1457 1457 1458 1459 1460 1462 1463 1465 1466 1468 1470 1472 1473 1475 1477 1479 1481 1483 1485 1487 1488 1490 1492 1493 1495 1497 1499 1500 1501 1502 1503 1504 1505 1506 1506 1506 1507 1507 1507 1506 1506 1505 1504
1454 1455 1456 1457 1458 1459 1461 1462 1464 1465 1467 1469 1470 1472 1474 1476 1478 1480 1482 1484 1486 1487 1488 1490 1492 1494 1496 1497 1498 1499 1500 1502 1502 1502 1503 1503 1503 1503 1502 1502 1502 1501 1500
1452 1453 1454 1455 1456 1457 1458 1459 1461 1463 1464 1466 1467 1469 1471 1473 1475 1477 1479 1481 1483 1484 1486 1487 1489 1491 1492 1494 1495 1496 1497 1498 1498 1499 1499 1499 1499 1499 1499 1498 1497 1497 1496
1451 1451 1452 1453 1454 1455 1456 1458 1459 1460 1461 1463 1464 1466 1468 1470 1472 1474 1475 1477 1479 1481 1482 1484 1486 1487 1489 1490 1491 1492 1493 1494 1494 1494 1494 1495 1495 1495 1494 1494 1493 1492 1491
1449 1449 1450 1451 1452 1453 1454 1456 1457 1458 1460 1461 1462 1464 1465 1466 1469 1471 1472 1474 1476 1478 1479 1481 1482 1483 1485 1486 1487 1488 1489 1490 1490 1490 1490 1490 1490 1490 1490 1490 1489 1488 1487
1447 1448 1448 1449 1450 1451 1452 1453 1455 1456 1458 1459 1461 1462 1463 1465 1467 1468 1470 1472 1473 1475 1476 1477 1478 1479 1480 1481 1483 1484 1484 1485 1485 1486 1486 1486 1485 1485 1485 1485 1485 1484 1482
1446 1446 1447 1448 1448 1449 1450 1451 1452 1454 1456 1457 1458 1460 1461 1462 1464 1466 1467 1469 1471 1472 1473 1473 1474 1475 1477 1478 1478 1479 1480 1480 1481 1481 1481 1481 1481 1481 1480 1480 1480 1479 1478
1445 1445 1445 1446 1447 1447 1448 1450 1450 1451 1452 1454 1456 1457 1459 1460 1461 1463 1465 1466 1467 1468 1469 1469 1471 1472 1473 1474 1474 1475 1475 1476 1476 1476 1476 1476 1476 1476 1475 1475 1474 1474 1473
1444 1444 1444 1444 1445 1446 1446 1447 1448 1449 1450 1451 1453 1454 1456 1457 1459 1460 1461 1462 1463 1464 1465 1465 1467 1468 1469 1469 1470 1471 1471 1471 1471 1472 1472 1471 1471 1471 1470 1470 1470 1469 1468
1443 1443 1443 1443 1443 1444 1444 1445 1446 1447 1447 1449 1450 1451 1452 1454 1455 1456 1457 1458 1459 1460 1461 1462 1462 1463 1464 1465 1465 1466 1466 1466 1466 1467 1467 1466 1466 1466 1465 1465 1464 1464 1463
1442 1441 1441 1441 1441 1442 1442 1443 1444 1445 1445 1446 1447 1448 1450 1451 1451 1452 1453 1454 1455 1456 1457 1457 1458 1459 1459 1460 1461 1461 1461 1461 1462 1462 1461 1461 1461 1461 1460 1460 1459 1459 1458
1440 1440 1439 1439 1439 1440 1440 1441 1442 1442 1443 1443 1444 1445 1446 1447 1448 1449 1450 1450 1451 1452 1452 1453 1453 1454 1454 1455 1455 1456 1456 1456 1456 1456 1456 1456 1456 1456 1455 1455 1454 1453 1452
1439 1438 1438 1438 1438 1438 1438 1438 1439 1439 1439 1440 1441 1441 1442 1443 1444 1445 1445 1446 1447 1447 1448 1448 1449 1449 1449 1450 1450 1450 1451 1451 1451 1451 1451 1451 1450 1450 1450 1449 1449 1448 1447
1438 1437 1437 1436 1436 1436 1436 1436 1436 1436 1436 1437 1437 1438 1439 1439 1440 1441 1441 1442 1442 1443 1443 1443 1444 1444 1444 1445 1445 1445 1445 1446 1446 1446 1446 1446 1445 1445 1445 1444 1443 1443 1442
1436 1436 1435 1434 1434 1434 1434 1434 1434 1433 1434 1434 1434 1435 1435 1436 1436 1437 1437 1437 1438 1438 1438 1439 1439 1439 1439 1439 1440 1440 1440 1440 1441 1441 1441 1441 1440 1440 1439 1439 1438 1437 1437
1435 1434 1433 1433 1432 1432 1432 1431 1431 1431 1431 1431 1431 1431 1431 1432 1432 1432 1433 1433 1433 1433 1433 1433 1433 1433 1434 1434 1434 1434 1434 1435 1435 1435 1435 1435 1435 1434 1434 1433 1433 1432 1431